Starlink 5883

operational
NORAD ID: 55956 Int'l Des: 2023-037 Owner: SPXS Country: US Constellation: starlink
LEOCIRCULAR

About Starlink 5883

Description loading...

Live Position

Loading 3D Globe...

Upcoming Passes

Altitude History

Altitude vs Time

uPlot chart will show altitude changes over time

Two-Line Element Set

1 55956U 23037AU 25304.76046405 .00002043 00000-0 17895-3 0 9993
2 55956 70.0009 229.4155 0002468 277.6393 82.4486 14.98334890145161
Epoch: Oct 31, 2025 • Age: 14 hours

Current Status

Altitude 580.6 km
Velocity 7.57 km/s
Sub-Earth Point -26.95°S, 48.27°E
Launch Date Mar 17, 2023
Age 2.6 years
Type internet

Technical Details

Classification Payload
Mass 305.00 kg
Dry Mass 290.00 kg
Total Mass 305.00 kg
Length 0.20 m
Diameter 2.80 m
Span 9.00 m
Shape Box + pan
Manufacturer SPXS
Bus Type Starlink
Phase Status In Orbit
Owner/State SPXS/US

Large Constellations

Loading constellations...